Simultaneous Nadir Overpasses (SNOs) Predictions

Prediction of SNOs between LANDSAT-8 and NOAA-19 Satellite Orbit:

Table of predicted SNOs for the next 14.0 days since TLE Epoch: 9/16/2023
Index Date (LANDSAT-8) Time (LANDSAT-8) Lat,Lon (LANDSAT-8) SZA (LANDSAT-8 ) Date (NOAA-19) Time (NOAA-19) Lat,Lon (NOAA-19) SZA (NOAA-19 ) Distance(km) Time Diff (sec)
1 09/16/2023 03:12:01 80.94, 169.34 80.13 09/16/2023 03:11:51 80.93, 169.21 80.11 2.46 10
2 09/18/2023 09:35:12 80.94, 73.59 81.03 09/18/2023 09:35:13 80.93, 73.43 81.01 3.01 1
3 09/20/2023 15:58:23 80.93, -22.30 81.91 09/20/2023 15:58:35 80.93, -22.40 81.90 1.83 12
4 09/22/2023 21:32:08 -80.91, 74.00 97.26 09/22/2023 21:31:03 -80.92, 74.17 97.26 3.17 65
5 09/22/2023 22:21:34 80.92,-118.32 82.77 09/22/2023 22:21:57 80.93,-118.29 82.79 1.33 23
6 09/25/2023 03:55:18 -80.91, -21.79 96.36 09/25/2023 03:54:25 -80.92, -21.88 96.38 1.81 53
7 09/25/2023 04:44:43 80.94, 146.22 83.72 09/25/2023 04:45:18 80.93, 146.15 83.72 1.83 35
8 09/27/2023 10:18:27 -80.93,-117.36 95.43 09/27/2023 10:17:45 -80.92,-117.27 95.44 1.75 42
9 09/27/2023 11:07:53 80.93, 50.27 84.59 09/27/2023 11:08:40 80.93, 50.15 84.60 2.27 47
10 09/29/2023 16:41:36 -80.93, 146.92 94.52 09/29/2023 16:41:06 -80.92, 146.90 94.54 1.33 30



Historial Predications of SNOs between LANDSAT-8 and NOAA-19
